| time (UTC) | temp C | wind direction | speed KPH | gust KPH | rain 1hr cm | rain 24hr cm | rain mn cm | humidity % | barometer mb |
| 20260507051202 | 5 | 244 | 0.0 | 0.0 | 0.00 | 0.03 | 0.03 | 92 | 1012.3 |
| 20260507050659 | 5 | 242 | 0.0 | 0.0 | 0.00 | 0.03 | 0.03 | 91 | 1012.3 |
| 20260507050155 | 5 | 237 | 0.0 | 0.0 | 0.00 | 0.03 | 0.03 | 91 | 1012.2 |
| 20260507045652 | 5 | 239 | 0.0 | 0.0 | 0.00 | 0.03 | 0.03 | 90 | 1012.0 |
| 20260507045149 | 5 | 247 | 0.0 | 0.0 | 0.18 | 0.03 | 0.03 | 90 | 1012.3 |
| 20260507044646 | 5 | 241 | 1.6 | 1.6 | 0.18 | 0.03 | 0.03 | 90 | 1012.2 |
| 20260507044143 | 5 | 261 | 0.0 | 1.6 | 0.00 | 0.00 | 0.00 | 90 | 1012.1 |
| 20260507043638 | 6 | 247 | 0.0 | 0.0 | 0.00 | 0.00 | 0.00 | 90 | 1012.4 |
| 20260507043136 | 6 | 251 | 1.6 | 1.6 | 0.00 | 0.00 | 0.00 | 90 | 1012.1 |
| 20260507042632 | 5 | 252 | 1.6 | 1.6 | 0.00 | 0.00 | 0.00 | 89 | 1012.2 |
| 20260507042127 | 6 | 255 | 1.6 | 1.6 | 0.00 | 0.00 | 0.00 | 91 | 1012.0 |
| 20260507041624 | 6 | 257 | 1.6 | 1.6 | 0.00 | 0.00 | 0.00 | 91 | 1012.1 |
| 20260507041121 | 6 | 273 | 3.2 | 3.2 | 0.00 | 0.00 | 0.00 | 92 | 1011.8 |
| 20260507040618 | 5 | 249 | 1.6 | 1.6 | 0.00 | 0.00 | 0.00 | 93 | 1012.0 |
| 20260507040114 | 5 | 254 | 1.6 | 1.6 | 0.00 | 0.00 | 0.00 | 94 | 1012.0 |
| 20260507035610 | 5 | 260 | 0.0 | 1.6 | 0.00 | 1.42 | 1.42 | 95 | 1012.0 |
| 20260507035106 | 5 | 240 | 0.0 | 0.0 | 0.00 | 1.42 | 1.42 | 95 | 1011.7 |
| 20260507034604 | 5 | 243 | 1.6 | 1.6 | 0.00 | 1.42 | 1.42 | 95 | 1011.8 |
| 20260507034102 | 5 | 246 | 0.0 | 0.0 | 0.00 | 1.42 | 1.42 | 95 | 1011.9 |
| 20260507033600 | 5 | 249 | 0.0 | 1.6 | 0.00 | 1.42 | 1.42 | 95 | 1011.7 |
| 20260507033056 | 5 | 250 | 3.2 | 4.8 | 0.00 | 1.42 | 1.42 | 96 | 1011.7 |
| 20260507032554 | 5 | 245 | 0.0 | 0.0 | 0.00 | 1.42 | 1.42 | 96 | 1011.7 |
| 20260507032049 | 5 | 247 | 0.0 | 0.0 | 0.00 | 1.42 | 1.42 | 96 | 1011.5 |
| 20260507031546 | 5 | 243 | 1.6 | 1.6 | 0.00 | 1.42 | 1.42 | 97 | 1011.7 |
| 20260507031043 | 5 | 241 | 0.0 | 0.0 | 0.00 | 1.42 | 1.42 | 97 | 1011.7 |
| 20260507030540 | 5 | 247 | 0.0 | 0.0 | 0.00 | 1.42 | 1.42 | 97 | 1011.6 |
| 20260507030038 | 5 | 253 | 1.6 | 1.6 | 0.00 | 1.42 | 1.42 | 98 | 1011.5 |
| 20260507025535 | 5 | 245 | 0.0 | 1.6 | 0.00 | 1.42 | 1.42 | 98 | 1011.5 |
| 20260507025032 | 5 | 245 | 0.0 | 0.0 | 0.13 | 1.42 | 1.42 | 98 | 1011.6 |
| 20260507024530 | 5 | 238 | 0.0 | 0.0 | 0.13 | 1.42 | 1.42 | 98 | 1011.6 |
| 20260507024026 | 5 | 242 | 0.0 | 0.0 | 0.00 | 1.40 | 1.40 | 98 | 1011.7 |
| 20260507023522 | 5 | 250 | 0.0 | 0.0 | 0.00 | 1.40 | 1.40 | 98 | 1011.7 |
| 20260507023020 | 5 | 246 | 0.0 | 0.0 | 0.00 | 1.40 | 1.40 | 98 | 1011.7 |
| 20260507022516 | 5 | 251 | 1.6 | 1.6 | 0.00 | 1.40 | 1.40 | 98 | 1011.5 |
| 20260507022012 | 5 | 235 | 1.6 | 1.6 | 0.00 | 1.40 | 1.40 | 98 | 1011.8 |
| 20260507021508 | 5 | 233 | 3.2 | 4.8 | 0.00 | 1.40 | 1.40 | 98 | 1011.8 |
| 20260507021005 | 5 | 240 | 1.6 | 1.6 | 0.00 | 1.40 | 1.40 | 98 | 1011.7 |
| 20260507020502 | 5 | 240 | 0.0 | 0.0 | 0.00 | 1.40 | 1.40 | 98 | 1011.9 |
| 20260507015958 | 5 | 220 | 1.6 | 3.2 | 0.00 | 1.40 | 1.40 | 98 | 1011.7 |
| 20260507015457 | 5 | 234 | 3.2 | 3.2 | 0.00 | 1.40 | 1.40 | 98 | 1011.7 |
| 20260507014954 | 5 | 230 | 3.2 | 3.2 | 0.00 | 1.40 | 1.40 | 98 | 1011.5 |
| 20260507014450 | 5 | 240 | 0.0 | 0.0 | 0.00 | 1.40 | 1.40 | 98 | 1011.5 |
| 20260507013946 | 5 | 238 | 3.2 | 3.2 | 0.00 | 1.40 | 1.40 | 97 | 1011.5 |
| 20260507013443 | 5 | 237 | 1.6 | 3.2 | 0.00 | 1.40 | 1.40 | 97 | 1011.5 |
| 20260507012941 | 5 | 244 | 0.0 | 0.0 | 0.00 | 1.40 | 1.40 | 97 | 1011.6 |
| 20260507012437 | 5 | 246 | 1.6 | 1.6 | 0.00 | 1.40 | 1.40 | 97 | 1011.7 |
| 20260507011934 | 5 | 261 | 3.2 | 3.2 | 0.00 | 1.40 | 1.40 | 97 | 1011.7 |
| 20260507011431 | 5 | 252 | 1.6 | 1.6 | 0.00 | 1.40 | 1.40 | 97 | 1011.5 |
| 20260507010931 | 5 | 246 | 1.6 | 1.6 | 0.00 | 1.40 | 1.40 | 97 | 1011.5 |
| 20260507010426 | 5 | 265 | 3.2 | 4.8 | 0.18 | 1.40 | 1.40 | 97 | 1011.4 |
| 20260507005924 | 5 | 248 | 1.6 | 1.6 | 0.18 | 1.40 | 1.40 | 97 | 1011.5 |
| 20260507005421 | 5 | 262 | 1.6 | 1.6 | 0.00 | 1.37 | 1.37 | 96 | 1011.5 |
| 20260507004917 | 5 | 257 | 1.6 | 1.6 | 0.00 | 1.37 | 1.37 | 96 | 1011.4 |
| 20260507004414 | 5 | 253 | 0.0 | 1.6 | 0.00 | 1.37 | 1.37 | 96 | 1011.3 |
| 20260507003912 | 5 | 268 | 1.6 | 1.6 | 0.00 | 1.37 | 1.37 | 96 | 1011.1 |
| 20260507003407 | 5 | 278 | 3.2 | 3.2 | 0.00 | 1.37 | 1.37 | 95 | 1010.9 |
| 20260507002902 | 5 | 274 | 3.2 | 3.2 | 0.00 | 1.37 | 1.37 | 95 | 1010.9 |
| 20260507002358 | 5 | 267 | 3.2 | 3.2 | 0.00 | 1.37 | 1.37 | 95 | 1011.0 |
| 20260507001856 | 5 | 288 | 4.8 | 4.8 | 0.00 | 1.37 | 1.37 | 94 | 1010.9 |
| 20260507001352 | 6 | 294 | 9.7 | 12.9 | 0.00 | 1.37 | 1.37 | 94 | 1010.7 |
| 20260507000849 | 6 | 273 | 6.4 | 6.4 | 0.00 | 1.37 | 1.37 | 93 | 1010.7 |
| 20260507000344 | 6 | 273 | 3.2 | 4.8 | 0.00 | 1.37 | 1.37 | 93 | 1010.5 |
| 20260506235841 | 6 | 259 | 1.6 | 1.6 | 0.00 | 1.37 | 1.37 | 93 | 1010.5 |
| 20260506235338 | 7 | 282 | 3.2 | 3.2 | 0.00 | 1.37 | 1.37 | 93 | 1010.6 |
| 20260506234834 | 7 | 305 | 3.2 | 4.8 | 0.00 | 1.37 | 1.37 | 93 | 1010.5 |
| 20260506234332 | 7 | 327 | 3.2 | 4.8 | 0.13 | 1.37 | 1.37 | 92 | 1010.3 |
| 20260506233830 | 7 | 323 | 6.4 | 9.7 | 0.13 | 1.37 | 1.37 | 91 | 1010.2 |
| 20260506233325 | 8 | 288 | 3.2 | 3.2 | 0.00 | 1.35 | 1.35 | 89 | 1010.1 |
| 20260506232822 | 8 | 294 | 3.2 | 3.2 | 0.00 | 1.35 | 1.35 | 88 | 1010.0 |
| 20260506232318 | 8 | 273 | 1.6 | 1.6 | 0.00 | 1.35 | 1.35 | 88 | 1009.9 |
| 20260506231815 | 8 | 243 | 0.0 | 0.0 | 0.00 | 1.35 | 1.35 | 87 | 1009.8 |
| 20260506231313 | 8 | 229 | 1.6 | 1.6 | 0.00 | 1.35 | 1.35 | 86 | 1009.8 |
| 20260506230810 | 8 | 252 | 1.6 | 1.6 | 0.00 | 1.35 | 1.35 | 86 | 1009.7 |
| 20260506230306 | 8 | 234 | 0.0 | 0.0 | 0.00 | 1.35 | 1.35 | 84 | 1009.7 |
| 20260506225803 | 8 | 217 | 3.2 | 3.2 | 0.00 | 1.35 | 1.35 | 83 | 1009.6 |
| 20260506225300 | 8 | 234 | 1.6 | 1.6 | 0.00 | 1.35 | 1.35 | 83 | 1009.7 |
| 20260506224756 | 8 | 227 | 1.6 | 3.2 | 0.18 | 1.35 | 1.35 | 83 | 1009.6 |
| 20260506224254 | 8 | 235 | 1.6 | 3.2 | 0.18 | 1.35 | 1.35 | 84 | 1009.4 |
| 20260506223750 | 8 | 222 | 0.0 | 0.0 | 0.00 | 1.32 | 1.32 | 83 | 1009.3 |
| 20260506223245 | 8 | 230 | 1.6 | 1.6 | 0.00 | 1.32 | 1.32 | 83 | 1009.4 |
| 20260506222743 | 8 | 198 | 3.2 | 3.2 | 0.00 | 1.32 | 1.32 | 83 | 1009.5 |
| 20260506222238 | 8 | 230 | 1.6 | 1.6 | 0.00 | 1.32 | 1.32 | 82 | 1009.2 |
| 20260506221736 | 8 | 212 | 1.6 | 1.6 | 0.00 | 1.32 | 1.32 | 83 | 1009.2 |
| 20260506221234 | 8 | 212 | 1.6 | 1.6 | 0.00 | 1.32 | 1.32 | 83 | 1009.3 |
| 20260506220731 | 8 | 222 | 1.6 | 1.6 | 0.00 | 1.32 | 1.32 | 84 | 1009.3 |
| 20260506220231 | 8 | 228 | 1.6 | 3.2 | 0.13 | 1.32 | 1.32 | 84 | 1009.2 |
| 20260506215729 | 8 | 212 | 1.6 | 1.6 | 0.13 | 1.32 | 1.32 | 83 | 1009.0 |
| 20260506215224 | 8 | 199 | 1.6 | 1.6 | 0.00 | 1.30 | 1.30 | 83 | 1009.3 |
| 20260506214721 | 8 | 227 | 0.0 | 0.0 | 0.00 | 1.30 | 1.30 | 84 | 1009.3 |
| 20260506214218 | 8 | 234 | 0.0 | 0.0 | 0.00 | 1.30 | 1.30 | 84 | 1009.3 |
| 20260506213716 | 8 | 196 | 3.2 | 3.2 | 0.00 | 1.30 | 1.30 | 83 | 1009.4 |
| 20260506213213 | 8 | 228 | 0.0 | 0.0 | 0.00 | 1.30 | 1.30 | 83 | 1009.5 |
| 20260506212711 | 8 | 226 | 0.0 | 1.6 | 0.00 | 1.30 | 1.30 | 82 | 1009.4 |
| 20260506212206 | 8 | 204 | 0.0 | 0.0 | 0.18 | 1.30 | 1.30 | 82 | 1009.4 |
| 20260506211702 | 8 | 261 | 0.0 | 1.6 | 0.18 | 1.30 | 1.30 | 81 | 1009.3 |
| 20260506211158 | 8 | 254 | 0.0 | 0.0 | 0.00 | 1.27 | 1.27 | 82 | 1009.3 |
| 20260506210655 | 8 | 266 | 0.0 | 0.0 | 0.00 | 1.27 | 1.27 | 83 | 1009.3 |
| 20260506210152 | 8 | 293 | 1.6 | 1.6 | 0.00 | 1.27 | 1.27 | 81 | 1009.6 |
| 20260506205649 | 8 | 269 | 0.0 | 0.0 | 0.00 | 1.27 | 1.27 | 82 | 1009.3 |
| 20260506205144 | 8 | 264 | 1.6 | 1.6 | 0.00 | 1.27 | 1.27 | 83 | 1009.3 |
| 20260506204642 | 8 | 257 | 0.0 | 0.0 | 0.13 | 1.27 | 1.27 | 83 | 1009.5 |
| 20260506204138 | 8 | 285 | 1.6 | 1.6 | 0.13 | 1.27 | 1.27 | 84 | 1009.4 |
| 20260506203637 | 7 | 209 | 1.6 | 1.6 | 0.00 | 1.24 | 1.24 | 84 | 1009.0 |
| 20260506203133 | 7 | 219 | 1.6 | 1.6 | 0.00 | 1.24 | 1.24 | 84 | 1009.5 |
| 20260506202632 | 7 | 251 | 0.0 | 0.0 | 0.00 | 1.24 | 1.24 | 84 | 1009.3 |
| 20260506202127 | 7 | 238 | 0.0 | 1.6 | 0.00 | 1.24 | 1.24 | 85 | 1009.0 |
| 20260506201624 | 7 | 76 | 3.2 | 3.2 | 0.00 | 1.24 | 1.24 | 85 | 1008.9 |
| 20260506201121 | 7 | 271 | 0.0 | 0.0 | 0.18 | 1.24 | 1.24 | 84 | 1009.3 |
| 20260506200617 | 7 | 21 | 3.2 | 4.8 | 0.18 | 1.24 | 1.24 | 85 | 1009.7 |
| 20260506200114 | 7 | 321 | 3.2 | 3.2 | 0.00 | 1.22 | 1.22 | 84 | 1009.5 |
| 20260506195611 | 7 | 344 | 3.2 | 4.8 | 0.00 | 1.22 | 1.22 | 83 | 1009.6 |
| 20260506195107 | 7 | 275 | 0.0 | 0.0 | 0.00 | 1.22 | 1.22 | 83 | 1009.4 |
| 20260506194605 | 7 | 290 | 3.2 | 3.2 | 0.00 | 1.22 | 1.22 | 83 | 1009.4 |
| 20260506194101 | 7 | 307 | 1.6 | 1.6 | 0.18 | 1.22 | 1.22 | 85 | 1009.3 |
| 20260506193559 | 7 | 336 | 6.4 | 6.4 | 0.18 | 1.22 | 1.22 | 84 | 1009.3 |
| 20260506193056 | 7 | 348 | 8.0 | 9.7 | 0.00 | 1.19 | 1.19 | 84 | 1009.3 |
| 20260506192553 | 7 | 137 | 3.2 | 3.2 | 0.00 | 1.19 | 1.19 | 84 | 1009.2 |
| 20260506192048 | 7 | 269 | 1.6 | 1.6 | 0.00 | 1.19 | 1.19 | 86 | 1009.2 |
| 20260506191545 | 7 | 286 | 1.6 | 3.2 | 0.00 | 1.19 | 1.19 | 86 | 1009.3 |
| 20260506191041 | 7 | 299 | 4.8 | 4.8 | 0.13 | 1.19 | 1.19 | 85 | 1009.6 |
| 20260506190538 | 7 | 341 | 6.4 | 6.4 | 0.13 | 1.19 | 1.19 | 85 | 1009.6 |
| 20260506190036 | 7 | 274 | 1.6 | 3.2 | 0.00 | 1.17 | 1.17 | 85 | 1009.6 |
| 20260506185533 | 7 | 309 | 4.8 | 6.4 | 0.00 | 1.17 | 1.17 | 86 | 1009.3 |
| 20260506185029 | 7 | 329 | 6.4 | 6.4 | 0.00 | 1.17 | 1.17 | 87 | 1009.4 |
| 20260506184527 | 7 | 351 | 9.7 | 11.3 | 0.00 | 1.17 | 1.17 | 86 | 1009.4 |
| 20260506184024 | 7 | 347 | 6.4 | 6.4 | 0.18 | 1.17 | 1.17 | 87 | 1009.3 |
| 20260506183519 | 7 | 305 | 4.8 | 4.8 | 0.18 | 1.17 | 1.17 | 89 | 1009.5 |
| 20260506183016 | 7 | 23 | 4.8 | 4.8 | 0.00 | 1.14 | 1.14 | 87 | 1009.6 |
| 20260506182514 | 7 | 0 | 8.0 | 11.3 | 0.00 | 1.14 | 1.14 | 89 | 1009.3 |
| 20260506182011 | 6 | 344 | 8.0 | 9.7 | 0.00 | 1.14 | 1.14 | 88 | 1009.5 |
| 20260506181509 | 6 | 357 | 8.0 | 9.7 | 0.00 | 1.14 | 1.14 | 90 | 1009.7 |
| 20260506181005 | 6 | 24 | 4.8 | 4.8 | 0.13 | 1.14 | 1.14 | 90 | 1009.8 |
| 20260506180502 | 6 | 12 | 8.0 | 9.7 | 0.13 | 1.14 | 1.14 | 91 | 1009.9 |
| 20260506175958 | 6 | 0 | 9.7 | 11.3 | 0.00 | 1.12 | 1.12 | 90 | 1009.8 |
| 20260506175455 | 6 | 329 | 11.3 | 12.9 | 0.00 | 1.12 | 1.12 | 91 | 1009.8 |
| 20260506174952 | 6 | 316 | 6.4 | 9.7 | 0.00 | 1.12 | 1.12 | 92 | 1009.5 |
| 20260506174450 | 6 | 335 | 8.0 | 9.7 | 0.00 | 1.12 | 1.12 | 92 | 1009.6 |
| 20260506173946 | 6 | 23 | 8.0 | 9.7 | 0.18 | 1.12 | 1.12 | 93 | 1009.2 |
| 20260506173444 | 6 | 341 | 6.4 | 9.7 | 0.18 | 1.12 | 1.12 | 93 | 1009.3 |
| 20260506172940 | 6 | 357 | 8.0 | 11.3 | 0.00 | 1.09 | 1.09 | 93 | 1009.2 |
| 20260506172438 | 6 | 33 | 9.7 | 11.3 | 0.00 | 1.09 | 1.09 | 93 | 1009.0 |
| 20260506171934 | 6 | 356 | 12.9 | 14.5 | 0.00 | 1.09 | 1.09 | 93 | 1008.9 |
| 20260506171432 | 6 | 5 | 8.0 | 9.7 | 0.00 | 1.09 | 1.09 | 94 | 1009.2 |
| 20260506170929 | 6 | 8 | 6.4 | 6.4 | 0.13 | 1.09 | 1.09 | 94 | 1008.8 |
| 20260506170425 | 6 | 352 | 4.8 | 4.8 | 0.13 | 1.09 | 1.09 | 94 | 1008.8 |
| 20260506165924 | 6 | 340 | 9.7 | 12.9 | 0.13 | 1.09 | 1.09 | 94 | 1008.8 |
| 20260506165422 | 6 | 297 | 3.2 | 4.8 | 0.00 | 1.07 | 1.07 | 95 | 1008.8 |
| 20260506164918 | 6 | 48 | 6.4 | 6.4 | 0.00 | 1.07 | 1.07 | 95 | 1008.7 |
| 20260506164415 | 6 | 338 | 8.0 | 9.7 | 0.00 | 1.07 | 1.07 | 95 | 1008.9 |
| 20260506163914 | 6 | 11 | 9.7 | 11.3 | 0.00 | 1.07 | 1.07 | 95 | 1008.8 |
| 20260506163413 | 6 | 353 | 8.0 | 9.7 | 0.18 | 1.07 | 1.07 | 95 | 1008.8 |
| 20260506162908 | 6 | 358 | 9.7 | 11.3 | 0.00 | 1.04 | 1.04 | 95 | 1008.7 |
| 20260506162407 | 6 | 2 | 8.0 | 9.7 | 0.00 | 1.04 | 1.04 | 95 | 1008.6 |
| 20260506161904 | 6 | 31 | 6.4 | 6.4 | 0.00 | 1.04 | 1.04 | 95 | 1008.7 |
| 20260506161402 | 6 | 357 | 9.7 | 11.3 | 0.00 | 1.04 | 1.04 | 95 | 1008.8 |
| 20260506160859 | 6 | 16 | 6.4 | 6.4 | 0.13 | 1.04 | 1.04 | 95 | 1008.8 |
| 20260506160355 | 6 | 355 | 3.2 | 3.2 | 0.13 | 1.04 | 1.04 | 95 | 1008.7 |
| 20260506155854 | 6 | 26 | 8.0 | 9.7 | 0.00 | 1.02 | 1.02 | 95 | 1008.8 |
| 20260506155351 | 6 | 14 | 6.4 | 9.7 | 0.00 | 1.02 | 1.02 | 95 | 1008.8 |
| 20260506153508 | 6 | 11 | 11.3 | 12.9 | 0.18 | 1.02 | 1.02 | 96 | 1008.8 |
| 20260506153005 | 6 | 7 | 11.3 | 12.9 | 0.00 | 0.99 | 0.99 | 97 | 1008.7 |
| 20260506152502 | 6 | 357 | 3.2 | 6.4 | 0.00 | 0.99 | 0.99 | 97 | 1008.7 |
| 20260506152000 | 6 | 12 | 6.4 | 6.4 | 0.00 | 0.99 | 0.99 | 98 | 1008.7 |
| 20260506151457 | 6 | 7 | 6.4 | 6.4 | 0.13 | 0.99 | 0.99 | 97 | 1008.7 |
| 20260506150954 | 5 | 26 | 8.0 | 9.7 | 0.13 | 0.99 | 0.99 | 97 | 1008.9 |
| 20260506150450 | 6 | 7 | 6.4 | 6.4 | 0.13 | 0.99 | 0.99 | 97 | 1008.8 |
| 20260506145948 | 6 | 355 | 6.4 | 6.4 | 0.00 | 0.97 | 0.97 | 97 | 1008.5 |
| 20260506145444 | 6 | 11 | 8.0 | 9.7 | 0.00 | 0.97 | 0.97 | 97 | 1008.6 |
| 20260506144942 | 6 | 7 | 6.4 | 6.4 | 0.00 | 0.97 | 0.97 | 97 | 1008.5 |
| 20260506144438 | 6 | 21 | 6.4 | 9.7 | 0.18 | 0.97 | 0.97 | 96 | 1008.6 |
| 20260506143937 | 6 | 39 | 6.4 | 6.4 | 0.18 | 0.97 | 0.97 | 96 | 1008.4 |
| 20260506143433 | 6 | 8 | 9.7 | 11.3 | 0.00 | 0.94 | 0.94 | 96 | 1008.6 |
| 20260506142931 | 6 | 321 | 3.2 | 3.2 | 0.00 | 0.94 | 0.94 | 96 | 1008.6 |
| 20260506142429 | 6 | 302 | 6.4 | 9.7 | 0.00 | 0.94 | 0.94 | 96 | 1008.5 |
| 20260506141927 | 6 | 15 | 6.4 | 9.7 | 0.13 | 0.94 | 0.94 | 96 | 1008.3 |
| 20260506141425 | 6 | 23 | 6.4 | 6.4 | 0.13 | 0.94 | 0.94 | 96 | 1008.1 |
| 20260506140923 | 6 | 4 | 6.4 | 6.4 | 0.00 | 0.91 | 0.91 | 96 | 1008.2 |
| 20260506140419 | 6 | 306 | 1.6 | 3.2 | 0.00 | 0.91 | 0.91 | 96 | 1008.3 |
| 20260506135916 | 6 | 70 | 6.4 | 9.7 | 0.00 | 0.91 | 0.91 | 96 | 1008.5 |
| 20260506135413 | 6 | 255 | 1.6 | 1.6 | 0.18 | 0.91 | 0.91 | 96 | 1008.3 |
| 20260506134909 | 6 | 96 | 3.2 | 3.2 | 0.18 | 0.91 | 0.91 | 96 | 1008.2 |
| 20260506134406 | 6 | 160 | 1.6 | 1.6 | 0.00 | 0.89 | 0.89 | 96 | 1008.3 |
| 20260506133903 | 6 | 73 | 6.4 | 6.4 | 0.00 | 0.89 | 0.89 | 96 | 1008.5 |
| 20260506133359 | 6 | 231 | 1.6 | 3.2 | 0.00 | 0.89 | 0.89 | 96 | 1008.0 |
| 20260506132856 | 6 | 279 | 1.6 | 3.2 | 0.00 | 0.89 | 0.89 | 97 | 1008.2 |
| 20260506132353 | 6 | 247 | 0.0 | 1.6 | 0.18 | 0.89 | 0.89 | 97 | 1008.0 |
| 20260506131851 | 6 | 46 | 4.8 | 4.8 | 0.18 | 0.89 | 0.89 | 96 | 1008.1 |
| 20260506131347 | 6 | 86 | 4.8 | 4.8 | 0.18 | 0.89 | 0.89 | 97 | 1007.9 |
| 20260506130845 | 6 | 213 | 3.2 | 3.2 | 0.00 | 0.86 | 0.86 | 97 | 1008.0 |
| 20260506130341 | 6 | 104 | 6.4 | 6.4 | 0.00 | 0.86 | 0.86 | 97 | 1008.1 |
| 20260506125839 | 6 | 67 | 1.6 | 3.2 | 0.00 | 0.86 | 0.86 | 97 | 1007.9 |
| 20260506125337 | 6 | 295 | 1.6 | 3.2 | 0.13 | 0.86 | 0.86 | 97 | 1008.0 |
| 20260506124835 | 6 | 97 | 6.4 | 6.4 | 0.13 | 0.86 | 0.86 | 97 | 1008.0 |
| 20260506124332 | 6 | 153 | 3.2 | 3.2 | 0.00 | 0.84 | 0.84 | 97 | 1007.9 |
| 20260506123829 | 6 | 70 | 6.4 | 6.4 | 0.00 | 0.84 | 0.84 | 97 | 1008.1 |
| 20260506123328 | 6 | 256 | 0.0 | 0.0 | 0.00 | 0.84 | 0.84 | 97 | 1007.9 |
| 20260506122825 | 6 | 303 | 3.2 | 3.2 | 0.00 | 0.84 | 0.84 | 97 | 1008.0 |
| 20260506122321 | 6 | 186 | 3.2 | 4.8 | 0.18 | 0.84 | 0.84 | 97 | 1008.2 |
| 20260506121820 | 6 | 282 | 3.2 | 3.2 | 0.18 | 0.84 | 0.84 | 97 | 1008.3 |
| 20260506121316 | 6 | 97 | 4.8 | 4.8 | 0.00 | 0.81 | 0.81 | 97 | 1008.1 |
| 20260506120813 | 6 | 331 | 1.6 | 1.6 | 0.00 | 0.81 | 0.81 | 98 | 1008.2 |
| 20260506120311 | 5 | 300 | 3.2 | 4.8 | 0.00 | 0.81 | 0.81 | 97 | 1008.2 |
| 20260506115809 | 6 | 9 | 3.2 | 6.4 | 0.00 | 0.81 | 0.81 | 98 | 1008.1 |
| 20260506115307 | 6 | 356 | 3.2 | 3.2 | 0.13 | 0.81 | 0.81 | 98 | 1008.3 |
| 20260506114804 | 6 | 291 | 1.6 | 1.6 | 0.13 | 0.81 | 0.81 | 98 | 1008.0 |
| 20260506114302 | 6 | 273 | 1.6 | 1.6 | 0.00 | 0.79 | 0.79 | 98 | 1008.3 |
| 20260506113800 | 6 | 279 | 3.2 | 3.2 | 0.00 | 0.79 | 0.79 | 98 | 1008.0 |
| 20260506113257 | 6 | 76 | 9.7 | 11.3 | 0.00 | 0.79 | 0.79 | 98 | 1007.8 |
| 20260506112754 | 6 | 9 | 0.0 | 1.6 | 0.00 | 0.79 | 0.79 | 98 | 1007.8 |
| 20260506112251 | 6 | 255 | 3.2 | 4.8 | 0.18 | 0.79 | 0.79 | 98 | 1007.8 |
| 20260506111748 | 6 | 59 | 4.8 | 4.8 | 0.18 | 0.79 | 0.79 | 98 | 1007.5 |
| 20260506111246 | 6 | 77 | 3.2 | 3.2 | 0.00 | 0.76 | 0.76 | 98 | 1007.6 |
| 20260506110743 | 6 | 75 | 6.4 | 11.3 | 0.00 | 0.76 | 0.76 | 99 | 1007.7 |
| 20260506110241 | 6 | 112 | 3.2 | 3.2 | 0.00 | 0.76 | 0.76 | 99 | 1007.9 |
| 20260506105737 | 6 | 75 | 4.8 | 4.8 | 0.00 | 0.76 | 0.76 | 99 | 1007.7 |
| 20260506105234 | 6 | 63 | 3.2 | 3.2 | 0.13 | 0.76 | 0.76 | 99 | 1007.8 |
| 20260506104732 | 6 | 306 | 3.2 | 3.2 | 0.13 | 0.76 | 0.76 | 99 | 1007.8 |
| 20260506104229 | 6 | 256 | 0.0 | 0.0 | 0.00 | 0.74 | 0.74 | 99 | 1008.0 |
| 20260506103726 | 6 | 103 | 0.0 | 1.6 | 0.00 | 0.74 | 0.74 | 99 | 1008.0 |
| 20260506103223 | 6 | 304 | 1.6 | 3.2 | 0.00 | 0.74 | 0.74 | 99 | 1008.0 |
| 20260506102721 | 6 | 256 | 0.0 | 0.0 | 0.18 | 0.74 | 0.74 | 99 | 1008.2 |
| 20260506102220 | 6 | 226 | 4.8 | 6.4 | 0.18 | 0.74 | 0.74 | 99 | 1008.3 |
| 20260506101716 | 6 | 65 | 3.2 | 3.2 | 0.00 | 0.71 | 0.71 | 99 | 1008.0 |
| 20260506101212 | 6 | 39 | 6.4 | 6.4 | 0.00 | 0.71 | 0.71 | 99 | 1008.2 |
| 20260506100711 | 6 | 19 | 3.2 | 3.2 | 0.00 | 0.71 | 0.71 | 99 | 1008.0 |
| 20260506100208 | 6 | 305 | 4.8 | 6.4 | 0.13 | 0.71 | 0.71 | 99 | 1008.1 |
| 20260506095706 | 6 | 258 | 0.0 | 0.0 | 0.13 | 0.71 | 0.71 | 99 | 1008.3 |
| 20260506095203 | 6 | 265 | 1.6 | 3.2 | 0.00 | 0.69 | 0.69 | 99 | 1008.3 |
| 20260506094700 | 6 | 53 | 3.2 | 4.8 | 0.00 | 0.69 | 0.69 | 99 | 1008.1 |
| 20260506094158 | 6 | 302 | 3.2 | 3.2 | 0.00 | 0.69 | 0.69 | 99 | 1008.2 |
| 20260506093657 | 6 | 266 | 1.6 | 1.6 | 0.18 | 0.69 | 0.69 | 99 | 1008.1 |
| 20260506093153 | 6 | 89 | 4.8 | 4.8 | 0.18 | 0.69 | 0.69 | 99 | 1008.1 |
| 20260506092651 | 6 | 255 | 0.0 | 1.6 | 0.00 | 0.66 | 0.66 | 99 | 1007.8 |
| 20260506092148 | 6 | 300 | 1.6 | 3.2 | 0.00 | 0.66 | 0.66 | 99 | 1007.7 |
| 20260506091646 | 6 | 262 | 3.2 | 3.2 | 0.00 | 0.66 | 0.66 | 99 | 1007.6 |
| 20260506091143 | 6 | 238 | 3.2 | 3.2 | 0.13 | 0.66 | 0.66 | 99 | 1007.5 |
| 20260506090641 | 6 | 302 | 3.2 | 3.2 | 0.13 | 0.66 | 0.66 | 99 | 1007.6 |
| 20260506090137 | 6 | 42 | 3.2 | 3.2 | 0.00 | 0.64 | 0.64 | 99 | 1007.6 |
| 20260506085634 | 6 | 240 | 0.0 | 0.0 | 0.00 | 0.64 | 0.64 | 99 | 1008.0 |
| 20260506085130 | 6 | 80 | 4.8 | 6.4 | 0.00 | 0.64 | 0.64 | 99 | 1007.8 |
| 20260506084627 | 6 | 140 | 3.2 | 3.2 | 0.18 | 0.64 | 0.64 | 99 | 1008.3 |
| 20260506084124 | 6 | 269 | 1.6 | 1.6 | 0.18 | 0.64 | 0.64 | 99 | 1008.1 |
| 20260506083621 | 6 | 246 | 1.6 | 1.6 | 0.00 | 0.61 | 0.61 | 99 | 1008.4 |
| 20260506083119 | 6 | 312 | 1.6 | 1.6 | 0.00 | 0.61 | 0.61 | 99 | 1007.9 |
| 20260506082615 | 6 | 211 | 1.6 | 3.2 | 0.13 | 0.61 | 0.61 | 99 | 1007.8 |
| 20260506082111 | 6 | 67 | 6.4 | 6.4 | 0.13 | 0.61 | 0.61 | 99 | 1008.1 |
| 20260506081609 | 6 | 86 | 4.8 | 4.8 | 0.00 | 0.58 | 0.58 | 99 | 1008.1 |
| 20260506081106 | 6 | 64 | 4.8 | 4.8 | 0.00 | 0.58 | 0.58 | 99 | 1008.2 |
| 20260506080604 | 6 | 201 | 3.2 | 3.2 | 0.18 | 0.58 | 0.58 | 99 | 1008.1 |
| 20260506073044 | 7 | 230 | 1.6 | 1.6 | 0.00 | 0.53 | 0.53 | 99 | 1007.8 |
| 20260506072541 | 7 | 25 | 12.9 | 14.5 | 0.13 | 0.53 | 0.53 | 99 | 1007.9 |
| 20260506072039 | 7 | 314 | 3.2 | 3.2 | 0.13 | 0.53 | 0.53 | 99 | 1007.9 |
| 20260506071537 | 7 | 79 | 4.8 | 4.8 | 0.00 | 0.51 | 0.51 | 99 | 1007.9 |
| 20260506071034 | 7 | 326 | 3.2 | 4.8 | 0.00 | 0.51 | 0.51 | 99 | 1007.9 |
| 20260506070531 | 7 | 293 | 1.6 | 3.2 | 0.18 | 0.51 | 0.51 | 99 | 1007.9 |
| 20260506062508 | 7 | 3 | 6.4 | 6.4 | 0.13 | 0.43 | 0.43 | 98 | 1008.6 |
| 20260506062005 | 7 | 14 | 4.8 | 4.8 | 0.13 | 0.43 | 0.43 | 98 | 1009.3 |
| 20260506061500 | 7 | 355 | 12.9 | 14.5 | 0.18 | 0.41 | 0.41 | 98 | 1008.8 |
| 20260506060958 | 7 | 4 | 6.4 | 6.4 | 0.18 | 0.41 | 0.41 | 98 | 1008.7 |
| 20260506060457 | 7 | 6 | 6.4 | 6.4 | 0.13 | 0.38 | 0.38 | 98 | 1008.7 |